Wind_Speed
32 33 33 33 34 34 34 33 33 32 32 31 31 30 30 29 29 29 29 28 27 26 24 22 21 20 21 22 23 25 28 30 30 28 27 26 26 27 28 29 28 26 25 24 24 25 25 22 20 18 17 16 16 16 16 18 18 17 16 15 13 13 12
32 32 32 32 32 32 32 31 31 30 29 29 28 28 28 28 28 28 28 28 27 26 24 22 21 20 20 20 20 22 26 28 28 28 28 27 27 28 29 29 29 27 26 26 25 24 24 23 22 20 19 18 17 18 18 19 19 16 15 15 13 12 12
31 31 31 31 30 30 30 30 29 29 28 28 28 27 27 27 27 27 26 26 26 25 25 23 22 22 21 20 21 23 26 28 28 28 29 29 28 29 29 29 29 29 28 28 25 23 23 22 21 21 21 18 18 18 18 20 19 15 14 15 13 11 11
30 30 29 29 29 29 29 29 29 29 29 29 29 28 27 27 27 26 25 25 25 25 25 25 24 23 24 24 24 25 26 27 28 28 29 29 28 28 27 27 30 31 30 29 27 24 23 21 20 20 19 19 19 18 18 20 19 15 14 15 14 12 9
28 28 28 28 29 29 30 31 31 31 31 31 31 31 30 30 30 28 27 26 26 26 25 26 26 26 26 27 27 27 28 29 29 29 28 28 28 27 26 26 28 31 33 31 27 25 23 22 21 20 20 20 20 18 19 19 18 16 14 14 14 12 9
27 27 28 29 30 31 32 33 33 33 33 33 33 33 32 32 31 28 27 27 27 27 27 27 28 27 28 28 29 29 29 30 30 29 27 25 26 27 26 25 26 30 33 31 25 23 22 21 20 19 20 21 19 18 18 18 16 15 14 13 13 12 8
26 27 28 30 31 32 32 33 33 33 34 34 33 33 32 31 29 27 26 26 26 27 27 28 28 29 30 31 31 30 30 30 29 28 27 25 23 24 26 26 25 27 29 28 23 21 22 20 19 19 19 20 19 18 17 16 15 15 14 11 11 10 8
27 28 29 30 31 32 32 32 33 34 34 34 33 33 32 30 28 26 26 26 26 26 27 28 29 30 32 33 33 33 32 31 30 28 26 24 22 22 24 27 26 24 25 26 22 19 20 19 18 16 17 19 17 16 16 14 14 14 11 7 7 7 7
28 29 29 30 30 31 32 32 33 34 34 34 33 33 32 30 29 27 26 27 27 27 28 29 30 31 33 33 34 35 33 31 29 26 25 21 19 20 21 25 26 23 22 24 23 18 15 16 15 13 16 17 13 13 14 12 13 12 5 3 4 4 5
28 28 29 29 30 30 31 32 33 34 34 34 33 32 31 30 30 28 27 28 27 28 28 30 32 33 33 34 35 36 34 31 28 25 24 21 18 19 20 22 23 20 17 19 22 18 12 14 14 12 16 17 13 12 12 12 11 7 1 1 4 3 4
28 28 28 29 29 30 30 32 33 33 34 33 32 32 31 30 29 28 28 28 28 28 28 30 33 34 35 36 35 34 34 32 29 25 22 20 17 17 18 19 19 18 15 15 21 20 12 11 12 12 15 17 15 13 12 12 10 4 3 2 3 4 5
27 27 27 28 29 30 31 32 33 33 34 33 33 31 30 29 29 28 28 29 29 29 30 32 33 34 35 35 34 33 34 33 31 26 22 19 16 15 15 15 16 18 17 16 21 21 14 10 11 12 14 16 16 14 12 12 8 4 4 2 3 5 5
26 26 27 28 29 31 33 34 34 34 34 34 33 32 30 29 28 28 28 29 29 30 32 33 33 34 33 32 32 33 34 32 30 26 22 18 14 13 13 11 12 13 14 16 20 21 15 10 11 14 16 17 16 14 12 11 7 5 5 3 3 5 5
25 26 28 30 32 33 34 35 35 35 35 34 34 32 30 28 27 27 28 30 30 31 32 33 33 33 31 30 31 32 33 31 28 25 21 17 13 10 10 9 10 12 13 16 20 20 15 10 11 14 17 18 15 13 13 11 7 6 5 4 4 5 5
25 27 30 31 33 34 35 35 35 35 35 35 34 33 30 28 27 27 29 30 30 31 33 33 32 31 29 30 31 32 32 30 27 23 18 15 11 8 8 9 12 12 14 17 19 19 15 11 13 14 16 18 17 14 14 11 8 7 6 4 4 5 4
26 29 31 33 34 35 35 36 36 36 36 35 35 33 31 28 26 27 29 30 29 31 34 33 31 29 29 31 32 32 32 29 25 22 17 14 11 9 9 10 12 12 14 18 20 19 15 11 13 14 13 16 17 16 15 11 9 8 6 5 3 3 3
28 30 32 33 34 35 35 36 36 37 36 36 35 34 32 29 26 26 28 29 29 31 35 34 31 29 30 32 32 33 33 29 24 20 13 8 7 6 7 7 7 8 13 20 21 20 14 8 11 13 11 12 13 13 12 9 8 7 6 5 2 1 3
29 31 32 33 34 35 36 37 37 37 37 36 35 34 32 29 26 25 27 29 29 31 35 35 31 30 30 31 33 33 33 29 26 22 11 2 3 2 2 5 4 3 12 18 18 17 13 8 10 13 12 12 11 11 12 9 6 6 5 4 3 1 1
30 31 32 33 34 35 36 37 37 37 37 36 36 34 32 30 26 25 26 28 29 30 34 34 31 30 29 30 33 34 33 30 27 25 16 3 3 2 2 3 4 6 13 17 16 15 12 10 10 11 11 12 11 11 12 8 6 6 4 4 3 3 1
29 31 32 33 34 35 36 36 37 37 37 37 36 34 33 30 27 25 26 27 28 29 33 33 30 29 29 30 33 35 35 31 27 25 20 11 6 5 4 1 4 10 14 16 16 14 12 11 10 9 10 12 11 10 10 9 8 7 4 4 3 2 1
29 31 32 32 34 35 35 36 37 37 37 37 36 34 33 31 29 26 25 25 27 28 32 33 30 29 29 30 33 36 37 33 28 25 22 17 13 10 7 1 8 12 14 16 16 12 10 11 11 10 10 11 12 11 10 10 10 7 4 4 3 1 0
29 30 31 32 34 35 36 37 37 37 37 36 35 34 33 31 28 26 23 23 25 27 30 32 31 29 29 30 32 36 38 35 30 27 23 19 15 11 7 2 9 13 15 17 14 9 10 11 9 10 9 9 11 11 10 8 9 7 5 5 4 2 1
29 30 31 33 34 35 36 37 37 37 36 36 35 33 32 30 27 24 22 21 22 25 29 30 29 27 28 30 32 35 37 36 32 28 22 17 14 12 7 4 12 14 16 17 12 10 12 12 9 8 8 8 9 10 10 8 8 7 5 4 3 3 3
28 30 32 33 34 36 36 37 37 36 36 35 35 33 31 29 26 23 21 20 21 25 28 29 27 26 27 30 32 34 36 36 34 29 21 16 15 14 8 5 13 15 17 16 11 10 11 10 10 9 8 9 9 9 10 11 11 8 4 3 2 3 3
29 30 31 33 35 36 36 36 36 36 35 35 34 33 31 28 25 22 20 20 21 25 29 28 26 26 27 29 31 34 35 35 34 29 19 15 16 13 5 5 12 15 15 13 10 10 8 7 9 10 8 8 8 8 9 10 10 8 6 3 2 3 2
29 30 31 33 35 36 36 36 37 36 36 35 34 33 31 27 24 21 19 19 21 25 29 28 26 25 27 29 30 33 34 34 33 29 19 14 14 9 6 9 12 13 12 11 10 8 6 6 8 9 8 8 8 8 9 8 7 7 5 1 2 2 1
28 30 31 33 34 35 36 37 37 37 36 36 35 34 32 28 23 20 19 20 21 25 29 29 26 25 26 28 29 31 34 33 32 29 21 12 9 9 11 12 13 12 10 10 10 8 7 6 8 10 8 8 8 9 8 8 6 5 3 0 2 3 3
28 29 30 32 33 34 36 37 38 38 38 37 36 35 33 28 24 20 19 20 21 24 28 29 27 25 25 27 28 30 33 34 32 30 23 13 7 10 13 13 13 11 9 8 8 7 7 7 9 10 10 9 9 10 10 9 7 5 3 2 2 3 4
28 29 30 31 33 34 36 38 38 39 38 37 36 35 33 30 25 21 20 20 21 24 28 30 28 25 24 25 27 29 32 34 33 32 27 17 7 8 10 11 12 10 7 6 5 4 5 6 8 11 11 11 11 11 12 10 8 7 6 5 3 3 4
27 28 30 32 33 35 37 38 39 39 38 38 37 36 34 32 27 23 21 21 21 23 27 29 29 26 24 24 26 28 30 33 34 34 31 22 9 7 7 8 9 8 6 6 5 4 4 5 7 10 12 12 12 12 12 12 11 10 9 8 6 5 4
26 28 30 32 34 35 37 38 39 40 40 39 38 37 35 33 30 26 22 21 22 23 25 28 29 28 25 24 25 27 29 31 32 32 31 25 12 8 7 5 7 7 6 6 5 4 4 4 5 7 9 11 12 12 13 14 14 13 12 11 10 7 5
25 27 29 31 33 35 37 38 40 40 40 41 39 38 36 34 32 29 26 23 23 23 24 26 28 28 27 26 26 26 27 29 31 31 31 27 16 8 7 4 5 6 6 5 3 2 3 4 5 6 7 9 10 10 12 14 15 15 14 13 11 9 7
25 26 28 30 32 34 36 37 39 39 40 40 39 38 37 35 33 31 29 26 24 23 24 24 26 27 28 27 27 26 27 28 30 31 31 29 20 7 6 3 3 4 5 4 3 2 2 3 4 5 5 5 7 8 8 9 11 13 13 12 11 10 8
24 26 27 29 31 32 34 35 36 37 37 37 37 37 36 35 33 31 30 29 27 26 25 24 25 25 26 27 27 27 27 27 30 31 31 30 25 11 3 3 2 2 2 2 2 2 1 2 2 3 3 4 4 5 6 7 9 10 10 10 8 7 7
24 25 26 27 29 30 31 33 34 34 35 35 35 35 34 34 33 31 29 28 27 27 25 25 25 25 26 27 27 27 27 27 27 28 28 29 27 17 4 2 1 0 1 2 2 1 0 1 1 1 2 3 3 3 4 5 7 9 9 8 7 7 7
23 24 25 26 27 29 30 31 32 32 33 33 33 33 32 32 31 30 28 27 26 25 25 24 24 24 24 25 26 26 26 25 25 25 26 26 27 22 11 3 3 2 2 3 2 1 0 1 1 1 2 3 3 3 3 4 5 7 8 7 7 7 7
22 22 23 24 26 27 28 30 30 31 32 32 32 32 31 30 29 28 27 26 24 23 23 22 22 22 22 23 23 24 24 24 24 24 24 24 24 22 14 7 4 5 5 4 4 3 3 3 3 2 1 3 3 4 4 5 6 6 5 5 6 5 6
Wind_Direction
341 342 342 342 342 343 343 343 344 343 343 341 340 339 337 336 335 334 334 334 333 332 328 324 320 314 307 298 288 286 287 284 284 285 277 266 261 258 253 250 249 251 256 256 252 252 250 246 245 242 241 241 239 245 259 270 276 280 287 292 294 298 305
342 343 344 344 343 343 343 343 343 343 342 342 341 340 339 338 337 335 335 334 334 332 330 328 323 318 313 305 295 288 287 285 283 283 279 269 260 257 255 249 244 245 250 254 255 255 250 243 242 242 242 244 244 251 261 267 270 278 286 290 294 301 309
346 346 346 345 344 343 343 344 344 344 345 345 344 344 344 344 342 341 340 339 338 337 335 332 326 321 315 309 303 295 292 291 287 284 284 277 266 260 258 249 240 240 245 250 253 258 256 246 238 241 242 242 244 250 257 262 267 274 280 286 295 303 311
347 346 344 344 344 344 346 347 348 348 349 349 349 350 351 350 349 349 348 345 343 341 338 332 327 322 318 315 309 302 297 295 291 288 287 283 275 268 261 248 236 235 239 243 245 249 255 250 239 238 237 236 240 243 249 259 266 271 275 285 296 300 306
346 345 345 345 347 349 350 352 352 353 353 354 354 354 355 354 355 355 351 347 344 341 336 330 326 323 321 317 313 309 304 300 296 293 291 287 282 275 265 252 240 238 236 235 240 244 246 247 243 240 235 232 237 237 240 250 261 268 275 285 295 298 303
348 348 349 350 352 353 354 354 354 355 355 355 356 355 355 355 355 354 348 343 341 338 333 329 326 324 323 321 319 316 312 309 304 299 296 293 285 278 272 259 247 247 240 229 234 244 244 244 240 234 229 227 232 235 237 247 255 263 273 282 294 299 304
353 354 354 355 356 356 356 356 355 356 355 355 355 354 354 354 353 350 344 340 338 335 332 328 326 326 325 324 324 323 320 317 313 306 301 296 285 277 273 263 255 256 243 225 226 239 242 242 236 230 223 218 222 230 235 243 251 259 269 279 290 296 299
357 358 358 358 358 357 357 357 356 356 355 354 353 353 353 352 351 348 342 339 336 333 330 328 327 327 327 326 327 328 325 321 319 315 307 300 288 279 273 268 267 263 240 222 224 235 240 239 231 226 221 213 216 226 228 230 243 257 267 278 287 290 298
359 359 360 359 359 358 358 358 357 356 355 353 352 352 352 350 350 348 342 338 336 333 331 329 329 330 330 330 331 332 330 325 323 319 313 305 292 282 276 269 269 262 239 224 225 231 237 232 222 218 219 215 212 220 222 224 242 260 273 298 292 295 307
0 0 0 360 359 359 359 359 358 357 354 352 351 350 349 347 348 348 343 338 335 334 333 331 331 332 332 333 334 335 334 332 329 323 316 310 297 289 282 271 264 256 242 233 231 232 233 225 219 213 209 204 201 212 225 234 245 257 245 273 298 323 327
0 0 1 0 360 360 0 0 359 357 354 351 350 349 347 346 346 346 343 337 335 335 333 332 332 332 332 333 335 336 337 336 334 329 320 311 302 295 287 273 260 245 234 235 234 234 235 222 216 211 200 192 191 200 218 232 238 233 212 256 323 345 332
360 0 1 1 1 1 2 2 1 358 354 351 349 348 346 345 344 344 342 337 337 337 334 333 334 334 334 335 337 339 339 338 337 332 322 312 306 301 290 272 254 237 229 235 236 233 230 213 200 197 194 191 189 189 205 224 227 218 233 279 348 340 323
0 1 2 2 3 4 4 3 1 358 355 352 349 347 346 343 342 343 339 337 341 340 336 336 337 336 337 339 340 341 340 339 338 334 326 317 312 307 299 274 247 237 237 243 240 230 223 211 196 186 186 191 191 187 201 218 216 212 239 276 326 323 317
2 3 3 4 5 5 4 3 1 359 355 352 348 346 345 342 341 341 335 336 343 344 341 342 340 339 340 342 343 342 340 340 339 337 332 325 319 310 300 271 247 249 250 246 237 222 211 203 193 185 184 188 186 186 199 209 209 222 245 265 294 304 303
3 5 6 6 6 4 4 2 0 358 355 352 349 346 345 342 340 338 332 335 346 349 348 348 346 346 346 345 346 344 342 343 344 343 339 332 327 319 301 268 249 253 247 235 226 213 202 194 187 181 181 184 184 190 198 199 207 224 238 248 270 290 291
6 8 8 7 6 4 3 2 0 358 356 353 350 346 344 342 339 336 330 335 347 353 354 354 352 352 350 348 348 347 346 349 350 350 350 345 335 321 306 271 243 242 231 219 213 203 194 186 179 173 172 178 180 184 186 190 210 220 225 235 257 293 292
9 10 9 7 5 3 3 1 360 359 356 353 350 347 345 342 339 335 331 335 348 355 356 356 356 355 353 351 351 350 351 356 357 354 360 12 2 330 314 290 250 225 208 204 201 195 190 178 171 170 169 170 171 173 175 183 209 216 218 223 222 295 290
12 10 9 7 5 3 3 2 360 359 357 354 351 347 345 343 340 335 330 334 347 355 356 356 357 357 357 358 359 356 355 1 4 1 360 90 140 180 267 297 295 194 186 191 185 182 187 180 166 163 158 159 163 167 170 180 207 217 224 224 190 171 270
12 11 10 8 6 4 3 2 0 359 357 354 351 349 347 345 341 334 329 334 346 354 355 356 357 359 1 5 5 2 359 2 9 9 0 320 197 151 146 287 275 186 182 184 173 167 174 170 159 152 149 154 160 161 160 170 204 210 217 226 188 154 174
12 11 11 8 7 6 4 3 1 0 358 356 353 351 350 346 343 338 333 338 348 354 355 355 358 2 7 9 8 7 6 6 12 15 7 355 356 15 31 3 197 183 184 181 171 167 165 153 145 148 154 156 158 160 163 174 194 202 211 222 193 154 111
13 12 11 9 8 7 6 5 4 2 0 357 355 354 352 349 347 345 342 344 352 356 355 356 0 7 12 13 10 10 11 10 11 10 6 3 360 351 342 290 180 184 188 179 171 173 165 147 139 145 156 160 159 168 179 172 169 182 211 228 226 229 60
14 13 12 11 10 9 8 7 6 5 2 359 358 357 356 353 351 351 350 350 355 359 357 359 5 10 13 15 13 12 13 13 11 5 0 3 6 355 341 224 186 192 191 179 170 168 160 152 146 140 146 157 157 164 173 162 157 174 207 235 248 285 308
14 14 13 12 12 11 10 9 8 7 4 1 0 1 360 358 357 357 358 358 0 2 1 5 10 13 13 14 14 13 13 13 11 6 360 2 7 360 346 220 197 196 189 180 170 159 154 154 157 147 142 149 150 155 161 149 147 166 198 239 261 284 254
15 15 14 13 13 13 12 11 11 10 7 4 3 4 4 4 4 4 5 5 5 6 8 10 12 14 14 15 16 14 13 13 12 8 2 358 359 355 344 222 196 188 181 177 169 158 153 153 161 160 150 149 146 151 156 140 125 135 175 233 310 316 229
16 16 14 14 15 15 14 13 13 13 11 8 7 8 8 8 10 11 11 11 10 10 13 14 15 15 13 15 18 14 12 15 15 12 6 358 358 1 7 176 180 176 172 169 159 153 153 155 165 166 160 160 154 150 158 149 131 143 181 204 321 323 210
17 16 15 16 15 15 15 14 15 15 14 12 11 11 13 13 15 16 15 15 14 14 16 18 19 18 14 15 19 15 12 15 17 15 12 5 8 32 102 144 156 158 156 151 143 146 155 162 173 174 171 173 169 157 157 157 156 173 191 189 353 329 285
17 16 16 17 16 15 15 16 16 17 17 16 15 15 16 17 19 20 19 18 16 16 19 21 21 21 17 15 18 16 14 16 17 16 15 11 30 80 115 133 140 139 135 135 136 143 154 167 184 190 185 179 176 170 165 165 172 183 192 308 356 360 1
17 17 16 16 16 15 15 16 17 18 18 19 18 17 18 19 20 21 20 19 17 16 20 23 23 22 20 18 18 16 14 15 17 17 16 16 49 95 109 118 126 127 124 130 135 143 157 174 191 198 195 185 180 180 177 178 185 182 185 228 274 346 343
17 16 15 14 15 15 15 16 17 18 19 21 21 20 20 21 22 21 20 19 18 16 19 23 24 23 22 21 20 17 13 13 15 17 17 17 42 102 106 104 110 112 116 129 132 140 167 181 189 196 197 190 187 190 187 185 193 195 200 223 241 267 277
17 15 13 12 13 14 15 16 17 17 18 20 22 22 22 22 22 22 20 18 17 16 17 20 23 24 22 20 20 19 15 13 14 16 16 17 38 112 120 103 98 96 106 128 128 134 172 187 190 199 203 195 191 198 199 196 200 206 212 224 235 248 252
17 15 12 12 12 13 14 15 16 16 16 19 22 23 22 22 22 22 20 17 17 17 16 17 20 22 21 18 17 19 18 15 15 17 17 18 41 116 136 109 92 86 95 114 117 130 169 188 190 200 213 211 202 201 204 205 208 214 220 227 233 243 252
15 14 14 13 13 13 13 14 15 15 15 16 19 20 21 21 21 21 20 18 16 16 15 14 15 18 20 17 15 18 20 18 18 20 19 21 37 102 136 112 87 82 84 95 101 125 167 183 187 194 212 227 226 216 208 206 209 214 221 230 236 241 249
14 14 15 14 14 14 14 14 14 14 15 15 16 17 19 19 19 18 18 17 14 13 13 12 11 13 16 17 16 17 20 20 21 22 22 22 29 70 137 124 85 75 70 79 90 104 161 179 191 196 201 222 243 243 228 217 216 219 222 230 237 242 247
13 14 14 14 15 15 14 14 14 15 15 15 15 16 16 16 17 16 14 13 12 9 8 8 8 9 11 14 15 16 18 20 20 21 21 21 24 38 127 159 97 69 53 53 75 88 146 174 187 212 216 218 232 250 249 236 232 234 231 230 236 243 247
12 13 13 13 15 16 15 15 15 15 15 15 15 16 16 15 15 13 11 10 8 5 4 3 4 5 5 8 11 13 15 16 16 16 18 20 22 26 39 199 214 51 11 5 23 49 102 171 184 230 257 252 240 248 257 248 243 246 243 238 243 248 248
11 11 11 12 14 14 14 14 15 14 14 15 16 17 17 16 15 12 10 8 5 2 1 359 360 1 1 2 5 8 11 11 10 11 13 17 20 21 20 344 278 285 314 328 322 307 270 199 192 201 261 261 256 249 246 240 240 249 253 251 249 251 254
8 8 9 10 12 13 12 13 13 13 13 15 17 18 18 16 14 12 12 11 7 4 0 356 354 355 358 359 359 1 5 7 6 6 7 11 15 18 19 8 315 290 286 285 282 275 255 218 189 176 229 250 252 246 237 227 220 226 244 253 251 260 268
Height
3137 3135 3133 3130 3128 3126 3124 3122 3120 3119 3117 3114 3112 3110 3108 3106 3103 3101 3099 3096 3094 3092 3090 3088 3086 3084 3082 3080 3079 3078 3075 3073 3072 3071 3071 3071 3071 3071 3072 3072 3073 3074 3073 3072 3072 3071 3072 3073 3074 3075 3076 3076 3077 3077 3078 3078 3078 3078 3079 3079 3080 3079 3078
3136 3134 3132 3130 3128 3126 3124 3122 3120 3118 3116 3114 3111 3109 3107 3104 3101 3099 3096 3093 3091 3089 3086 3084 3083 3081 3079 3077 3076 3074 3071 3070 3069 3068 3066 3065 3065 3065 3066 3066 3067 3069 3070 3068 3068 3068 3069 3070 3071 3073 3073 3074 3075 3075 3076 3076 3076 3077 3077 3077 3078 3077 3076
3135 3133 3131 3129 3127 3125 3123 3121 3119 3117 3114 3112 3110 3107 3105 3102 3099 3096 3094 3091 3089 3086 3084 3082 3080 3078 3077 3075 3073 3071 3069 3067 3065 3064 3063 3061 3060 3060 3060 3061 3062 3064 3066 3065 3065 3066 3066 3067 3069 3070 3071 3072 3073 3074 3074 3073 3074 3076 3075 3075 3076 3076 3075
3134 3133 3131 3129 3127 3124 3122 3120 3117 3115 3112 3110 3107 3105 3102 3100 3097 3094 3092 3089 3087 3085 3082 3080 3078 3076 3074 3072 3070 3068 3066 3064 3062 3061 3060 3059 3058 3056 3056 3056 3057 3060 3061 3062 3062 3063 3064 3065 3067 3068 3069 3070 3071 3073 3073 3071 3072 3074 3074 3074 3074 3074 3074
3134 3132 3130 3128 3125 3123 3120 3117 3115 3112 3110 3107 3104 3101 3099 3096 3094 3092 3089 3087 3085 3083 3080 3078 3076 3073 3071 3069 3067 3065 3063 3061 3059 3057 3056 3055 3055 3054 3052 3052 3054 3055 3056 3057 3058 3060 3061 3062 3064 3066 3067 3067 3069 3070 3071 3070 3071 3072 3072 3073 3073 3073 3073
3134 3131 3129 3126 3124 3121 3118 3116 3113 3110 3108 3105 3103 3100 3097 3094 3092 3090 3088 3085 3083 3081 3079 3076 3073 3071 3069 3067 3064 3062 3060 3058 3055 3054 3053 3052 3051 3050 3050 3050 3051 3052 3052 3054 3055 3056 3058 3059 3060 3062 3064 3065 3067 3068 3069 3070 3070 3071 3071 3072 3071 3071 3071
3133 3131 3128 3125 3122 3120 3117 3115 3112 3109 3106 3104 3102 3099 3096 3094 3092 3089 3087 3084 3082 3079 3077 3074 3071 3069 3066 3064 3062 3059 3057 3054 3052 3050 3049 3048 3047 3047 3047 3047 3048 3048 3049 3050 3051 3053 3055 3056 3057 3059 3061 3063 3065 3066 3067 3068 3069 3069 3070 3071 3070 3069 3069
3132 3130 3127 3125 3122 3120 3117 3114 3111 3109 3106 3103 3101 3099 3096 3093 3091 3089 3086 3083 3081 3078 3075 3072 3070 3067 3064 3062 3059 3057 3054 3051 3049 3048 3046 3045 3044 3043 3044 3044 3044 3045 3046 3047 3049 3050 3052 3053 3055 3057 3059 3060 3063 3065 3066 3067 3068 3068 3070 3069 3068 3068 3068
3132 3130 3128 3125 3122 3120 3117 3114 3111 3108 3106 3103 3100 3098 3095 3093 3090 3088 3085 3082 3079 3076 3073 3071 3068 3066 3063 3060 3057 3054 3051 3048 3046 3045 3043 3042 3041 3041 3040 3040 3041 3042 3043 3045 3047 3048 3049 3050 3053 3056 3057 3059 3062 3064 3064 3066 3066 3067 3068 3068 3067 3067 3067
3132 3130 3128 3125 3123 3120 3117 3114 3111 3108 3105 3103 3100 3097 3094 3092 3089 3086 3083 3080 3077 3074 3072 3069 3066 3064 3061 3058 3055 3052 3049 3046 3043 3041 3040 3039 3038 3037 3037 3037 3038 3039 3041 3043 3044 3045 3047 3049 3051 3054 3055 3057 3060 3062 3063 3064 3065 3066 3067 3067 3067 3067 3066
3132 3130 3128 3125 3123 3120 3117 3114 3111 3108 3105 3102 3100 3097 3094 3091 3088 3085 3082 3079 3075 3073 3070 3067 3065 3062 3059 3056 3053 3050 3047 3044 3041 3039 3037 3036 3035 3035 3034 3034 3035 3037 3038 3040 3042 3044 3046 3047 3049 3051 3053 3055 3058 3060 3061 3062 3064 3066 3067 3067 3066 3066 3066
3133 3130 3128 3126 3123 3120 3117 3114 3111 3108 3105 3102 3099 3096 3093 3090 3087 3084 3081 3077 3075 3072 3069 3067 3064 3060 3057 3054 3051 3048 3045 3042 3039 3036 3034 3033 3033 3032 3032 3032 3033 3035 3037 3039 3040 3043 3045 3046 3047 3049 3051 3054 3057 3059 3060 3061 3063 3065 3065 3066 3066 3065 3066
3133 3131 3128 3126 3122 3119 3116 3113 3110 3107 3104 3101 3098 3095 3092 3089 3086 3083 3079 3076 3074 3072 3068 3065 3062 3059 3056 3053 3050 3046 3043 3040 3037 3034 3032 3031 3031 3031 3030 3030 3032 3034 3036 3038 3039 3042 3044 3046 3047 3048 3050 3053 3055 3057 3059 3060 3062 3064 3064 3065 3065 3065 3066
3134 3131 3128 3125 3121 3118 3115 3112 3109 3107 3104 3100 3097 3094 3091 3088 3085 3082 3078 3075 3074 3071 3067 3064 3060 3057 3054 3051 3048 3045 3041 3038 3035 3032 3030 3029 3030 3030 3029 3030 3032 3033 3035 3036 3039 3041 3044 3045 3046 3047 3049 3052 3054 3056 3058 3059 3061 3063 3064 3064 3065 3065 3065
3133 3130 3127 3123 3120 3117 3115 3112 3109 3106 3103 3100 3096 3093 3090 3087 3084 3081 3076 3074 3073 3070 3067 3063 3059 3056 3053 3050 3047 3044 3040 3036 3033 3031 3029 3028 3029 3029 3029 3030 3031 3032 3034 3035 3038 3041 3043 3044 3045 3046 3048 3051 3053 3055 3057 3059 3061 3062 3063 3064 3064 3064 3065
3133 3129 3126 3123 3120 3117 3115 3112 3109 3106 3102 3099 3095 3092 3088 3085 3083 3080 3075 3073 3073 3070 3066 3063 3059 3056 3052 3049 3046 3043 3039 3035 3032 3030 3028 3028 3028 3028 3028 3029 3029 3031 3033 3035 3038 3040 3042 3044 3045 3046 3048 3050 3053 3055 3056 3058 3060 3061 3063 3063 3064 3064 3064
3132 3129 3126 3123 3120 3117 3114 3111 3108 3105 3101 3098 3094 3091 3088 3085 3082 3079 3074 3072 3072 3069 3065 3062 3059 3056 3053 3049 3046 3043 3039 3035 3033 3030 3029 3028 3028 3028 3028 3028 3029 3030 3032 3034 3037 3040 3042 3044 3045 3046 3048 3050 3053 3054 3056 3057 3059 3061 3062 3063 3064 3064 3064
3131 3129 3126 3123 3120 3117 3114 3111 3108 3104 3101 3098 3094 3090 3087 3084 3081 3078 3073 3072 3071 3069 3065 3062 3059 3056 3054 3050 3047 3042 3039 3036 3033 3031 3030 3029 3028 3027 3028 3029 3029 3031 3033 3035 3037 3039 3042 3044 3045 3046 3048 3050 3052 3054 3056 3057 3059 3060 3061 3062 3063 3064 3064
3131 3129 3126 3123 3120 3117 3114 3111 3108 3104 3101 3097 3093 3090 3086 3083 3080 3077 3073 3072 3071 3069 3066 3062 3059 3057 3054 3051 3047 3043 3039 3036 3033 3031 3030 3030 3029 3028 3029 3030 3030 3032 3034 3036 3038 3040 3042 3043 3044 3047 3048 3050 3052 3054 3055 3057 3059 3060 3061 3062 3063 3064 3065
3132 3129 3126 3123 3120 3117 3114 3111 3107 3104 3100 3097 3093 3089 3086 3082 3080 3077 3074 3072 3072 3069 3066 3063 3060 3058 3054 3051 3048 3044 3040 3037 3034 3032 3032 3031 3030 3030 3031 3031 3031 3033 3035 3037 3039 3040 3042 3043 3045 3047 3048 3050 3052 3054 3055 3057 3059 3060 3061 3062 3063 3064 3064
3132 3129 3127 3124 3121 3118 3115 3111 3107 3104 3100 3096 3093 3089 3085 3082 3079 3077 3075 3073 3072 3070 3066 3063 3060 3057 3054 3051 3048 3045 3041 3038 3036 3034 3033 3032 3031 3032 3033 3032 3033 3034 3036 3037 3040 3041 3042 3043 3045 3047 3049 3051 3053 3055 3056 3058 3058 3060 3061 3062 3063 3064 3064
3133 3130 3127 3125 3121 3118 3115 3111 3108 3104 3100 3096 3092 3089 3085 3082 3079 3077 3076 3074 3073 3070 3067 3063 3060 3057 3054 3052 3049 3046 3043 3040 3038 3036 3034 3033 3032 3033 3034 3034 3034 3035 3037 3039 3041 3042 3043 3045 3047 3049 3050 3052 3054 3056 3058 3059 3059 3060 3062 3063 3064 3064 3065
3133 3130 3128 3125 3122 3118 3115 3111 3108 3104 3100 3096 3093 3089 3085 3082 3079 3077 3076 3075 3073 3071 3067 3064 3061 3059 3056 3053 3050 3048 3044 3041 3039 3036 3035 3034 3034 3034 3034 3034 3035 3036 3038 3039 3041 3042 3044 3046 3049 3051 3052 3054 3056 3057 3058 3060 3061 3061 3062 3063 3064 3064 3064
3133 3131 3128 3125 3122 3119 3115 3112 3108 3105 3101 3097 3093 3090 3086 3082 3080 3078 3077 3076 3074 3071 3068 3065 3063 3060 3058 3055 3052 3049 3047 3043 3040 3037 3035 3035 3035 3035 3034 3035 3036 3037 3038 3040 3042 3044 3046 3048 3050 3052 3054 3056 3057 3058 3059 3061 3062 3062 3063 3063 3064 3064 3064
3134 3131 3129 3126 3122 3119 3116 3113 3110 3106 3102 3098 3094 3090 3086 3083 3081 3079 3078 3076 3075 3072 3069 3066 3064 3062 3059 3057 3054 3051 3049 3045 3042 3038 3036 3036 3037 3036 3035 3036 3037 3039 3040 3042 3044 3046 3048 3050 3052 3053 3055 3057 3058 3059 3060 3061 3061 3062 3063 3064 3064 3064 3065
3134 3132 3129 3126 3123 3120 3117 3114 3110 3107 3103 3099 3095 3091 3088 3084 3082 3080 3079 3077 3075 3073 3071 3068 3065 3063 3061 3058 3056 3053 3051 3047 3044 3041 3039 3039 3039 3037 3037 3038 3039 3041 3042 3044 3046 3047 3049 3051 3053 3055 3056 3057 3058 3059 3060 3061 3062 3063 3064 3065 3065 3065 3065
3135 3133 3130 3127 3124 3121 3118 3115 3111 3107 3104 3100 3096 3092 3089 3086 3083 3081 3080 3078 3076 3074 3072 3069 3067 3064 3062 3060 3058 3055 3052 3049 3047 3044 3042 3041 3041 3040 3040 3040 3041 3043 3046 3047 3048 3049 3050 3052 3054 3056 3057 3058 3059 3060 3061 3062 3063 3064 3065 3066 3066 3066 3066
3135 3133 3131 3128 3125 3122 3119 3116 3112 3108 3104 3101 3097 3093 3090 3087 3084 3083 3081 3079 3077 3075 3073 3071 3068 3066 3064 3062 3060 3057 3055 3052 3049 3047 3044 3043 3043 3043 3043 3043 3044 3046 3048 3050 3050 3051 3052 3053 3055 3056 3057 3059 3060 3061 3062 3063 3064 3065 3066 3066 3066 3067 3067
3136 3134 3131 3129 3126 3123 3120 3116 3113 3109 3106 3102 3099 3095 3092 3089 3086 3084 3082 3080 3079 3076 3074 3072 3070 3068 3066 3064 3062 3059 3057 3054 3051 3049 3046 3045 3045 3046 3046 3047 3048 3049 3050 3051 3052 3053 3054 3055 3056 3057 3058 3059 3060 3061 3062 3064 3065 3065 3066 3067 3067 3067 3068
3136 3134 3131 3129 3126 3123 3120 3117 3113 3110 3106 3103 3099 3096 3093 3090 3087 3085 3083 3081 3080 3077 3075 3073 3071 3069 3067 3065 3063 3061 3059 3056 3053 3051 3049 3047 3046 3047 3049 3050 3050 3050 3051 3052 3053 3054 3055 3056 3057 3058 3058 3059 3060 3061 3063 3064 3065 3066 3066 3067 3068 3068 3068
3137 3135 3132 3129 3125 3123 3120 3116 3113 3110 3107 3103 3100 3097 3094 3091 3088 3086 3084 3082 3080 3078 3076 3074 3072 3070 3068 3066 3064 3062 3060 3058 3056 3053 3052 3050 3048 3048 3050 3052 3052 3052 3052 3053 3054 3055 3056 3057 3058 3059 3060 3061 3061 3062 3062 3064 3065 3065 3066 3067 3068 3068 3068
3137 3135 3132 3129 3126 3123 3119 3116 3113 3110 3106 3103 3100 3097 3095 3092 3090 3087 3085 3083 3081 3079 3078 3075 3073 3071 3069 3067 3066 3064 3062 3060 3058 3056 3054 3052 3050 3050 3052 3053 3053 3053 3053 3054 3055 3055 3056 3057 3058 3059 3060 3061 3062 3063 3063 3064 3064 3065 3066 3067 3068 3068 3069
3138 3135 3133 3130 3127 3124 3120 3117 3114 3110 3107 3104 3101 3098 3096 3093 3091 3088 3086 3083 3082 3080 3078 3077 3075 3073 3071 3069 3067 3065 3064 3062 3060 3058 3056 3054 3053 3052 3053 3054 3054 3055 3055 3054 3055 3056 3057 3058 3058 3059 3060 3061 3062 3063 3064 3064 3065 3065 3066 3067 3067 3068 3069
3138 3136 3133 3131 3128 3125 3122 3119 3115 3112 3109 3106 3102 3099 3097 3094 3092 3089 3087 3084 3082 3080 3079 3077 3076 3074 3072 3070 3068 3066 3064 3063 3061 3059 3058 3057 3055 3054 3055 3055 3055 3056 3056 3056 3056 3056 3057 3058 3059 3060 3060 3061 3062 3063 3063 3064 3065 3065 3066 3066 3067 3068 3068
3138 3136 3134 3131 3129 3127 3124 3121 3117 3114 3111 3108 3105 3101 3098 3096 3093 3090 3088 3085 3083 3081 3079 3077 3076 3074 3073 3071 3069 3067 3065 3064 3063 3062 3061 3059 3057 3056 3056 3056 3056 3057 3057 3057 3057 3057 3058 3058 3059 3060 3061 3061 3062 3062 3063 3064 3065 3065 3066 3066 3067 3068 3068
3139 3137 3134 3132 3130 3128 3125 3123 3120 3116 3113 3110 3107 3104 3100 3098 3095 3093 3090 3087 3084 3082 3080 3078 3077 3075 3073 3072 3070 3068 3067 3065 3064 3064 3063 3061 3060 3058 3057 3057 3057 3058 3058 3058 3058 3058 3058 3058 3059 3060 3061 3061 3062 3062 3063 3063 3064 3065 3066 3066 3067 3067 3068
3139 3137 3135 3133 3131 3128 3126 3124 3121 3118 3115 3112 3109 3105 3102 3100 3097 3095 3092 3089 3087 3084 3082 3080 3078 3076 3074 3073 3071 3070 3068 3067 3065 3064 3064 3063 3062 3060 3059 3058 3058 3059 3059 3059 3059 3058 3058 3058 3058 3059 3060 3061 3061 3062 3062 3063 3064 3064 3066 3066 3067 3067 3067